TimeEST,TemperatureF,Dew PointF,Humidity,Sea Level PressureIn,VisibilityMPH,Wind Direction,Wind SpeedMPH,Gust SpeedMPH,PrecipitationIn,Events,Conditions,WindDirDegrees,DateUTC
12:53 AM,64.9,62.1,90,30.29,10.0,ESE,6.9,-,N/A,,Clear,110,2013-01-11 05:53:00
1:53 AM,64.9,62.1,90,30.27,10.0,East,5.8,-,N/A,,Clear,100,2013-01-11 06:53:00
2:53 AM,62.1,60.1,93,30.25,8.0,ESE,4.6,-,N/A,,Clear,110,2013-01-11 07:53:00
3:53 AM,61.0,60.1,97,30.25,5.0,ENE,4.6,-,N/A,,Scattered Clouds,60,2013-01-11 08:53:00
4:53 AM,64.0,63.0,96,30.22,7.0,East,6.9,-,N/A,,Overcast,90,2013-01-11 09:53:00
5:53 AM,63.0,62.1,97,30.22,6.0,ENE,4.6,-,N/A,,Clear,70,2013-01-11 10:53:00
6:05 AM,60.8,60.8,100,30.22,1.8,East,3.5,-,N/A,,Clear,80,2013-01-11 11:05:00
6:18 AM,60.8,60.8,100,30.22,0.5,ENE,4.6,-,N/A,Fog,Fog,70,2013-01-11 11:18:00
7:05 AM,62.6,60.8,94,30.23,2.0,ENE,5.8,-,N/A,,Mostly Cloudy,70,2013-01-11 12:05:00
7:08 AM,62.6,60.8,94,30.23,3.0,ENE,6.9,-,N/A,,Scattered Clouds,70,2013-01-11 12:08:00
7:12 AM,62.6,60.8,94,30.23,1.0,ENE,5.8,-,N/A,Fog,Fog,70,2013-01-11 12:12:00
7:14 AM,62.6,60.8,94,30.23,0.5,ENE,5.8,-,N/A,Fog,Fog,70,2013-01-11 12:14:00
7:27 AM,62.6,62.6,100,30.23,0.5,East,6.9,-,N/A,Fog,Fog,80,2013-01-11 12:27:00
7:45 AM,62.6,62.6,100,30.24,0.5,ENE,5.8,-,N/A,Fog,Fog,60,2013-01-11 12:45:00
7:53 AM,63.0,63.0,100,30.25,0.5,NE,6.9,-,N/A,Fog,Fog,50,2013-01-11 12:53:00
8:49 AM,66.2,66.2,100,30.27,2.5,ENE,4.6,-,N/A,,Overcast,70,2013-01-11 13:49:00
8:53 AM,66.9,66.0,97,30.27,4.0,East,4.6,-,N/A,,Overcast,80,2013-01-11 13:53:00
9:05 AM,69.8,68.0,94,30.26,8.0,East,6.9,-,N/A,,Partly Cloudy,90,2013-01-11 14:05:00
9:53 AM,75.0,66.9,76,30.27,10.0,ESE,8.1,-,N/A,,Clear,110,2013-01-11 14:53:00
10:53 AM,78.1,64.9,64,30.27,10.0,SE,10.4,-,N/A,,Scattered Clouds,130,2013-01-11 15:53:00
11:53 AM,81.0,63.0,54,30.25,10.0,SE,12.7,17.3,N/A,,Mostly Cloudy,130,2013-01-11 16:53:00
12:53 PM,82.0,62.1,51,30.22,10.0,East,8.1,-,N/A,,Mostly Cloudy,90,2013-01-11 17:53:00
1:53 PM,84.0,61.0,46,30.18,10.0,SE,9.2,-,N/A,,Partly Cloudy,130,2013-01-11 18:53:00
2:53 PM,84.9,60.1,43,30.16,10.0,ESE,12.7,-,N/A,,Partly Cloudy,110,2013-01-11 19:53:00
3:53 PM,84.0,61.0,46,30.15,10.0,SE,13.8,18.4,N/A,,Partly Cloudy,140,2013-01-11 20:53:00
4:53 PM,82.0,62.1,51,30.16,10.0,East,9.2,-,N/A,,Partly Cloudy,100,2013-01-11 21:53:00
5:53 PM,75.9,66.0,71,30.17,10.0,East,9.2,-,N/A,,Partly Cloudy,100,2013-01-11 22:53:00
6:53 PM,73.0,66.0,79,30.18,10.0,East,6.9,-,N/A,,Clear,80,2013-01-11 23:53:00
7:53 PM,71.1,66.0,84,30.19,10.0,East,8.1,-,N/A,,Clear,90,2013-01-12 00:53:00
8:53 PM,70.0,66.0,87,30.19,10.0,ESE,6.9,-,N/A,,Clear,110,2013-01-12 01:53:00
9:53 PM,68.0,64.9,90,30.20,10.0,East,5.8,-,N/A,,Clear,100,2013-01-12 02:53:00
10:53 PM,66.0,63.0,90,30.21,10.0,East,5.8,-,N/A,,Clear,100,2013-01-12 03:53:00